Location: Mat�lon
(46.2791°N, 7.1028°E)
Time: 05:50:37
(UTC+00:00)

Okean 1 Rocket - Pass Details

Date: 18 September 2020
Orbit: 606 x 635 km, 82.5° (Epoch: 23 October)

Event Time Altitude Azimuth Distance (km) Brightness Sun altitude
Exits shadow 19:51:18 72° 80° (E) 672 3.0 -23.1°
Drops below altitude 10° 19:55:40 10° 13° (NNE) 2,033 5.9 -23.8°
Sets 19:57:56 0° 11° (NNE) 2,946 6.8 -24.1°
